This is the latest recevied weather packets stored in our database for station/object 9M4RLD-3. If no packets are shown the sender has not sent any weather packets the latest 1 day(s).
| Time | Temp. | Humidity | Pressure | Rain* | Wind** | Luminosity | Snow |
|---|---|---|---|---|---|---|---|
| 1777893071 | 22.78° C | 100% | 1032.4 hPa | - | - | - | - |
| 1777891871 | 22.78° C | 100% | 1031.8 hPa | - | - | - | - |
| 1777890671 | 22.78° C | 100% | 1031.8 hPa | - | - | - | - |
| 1777889471 | 22.78° C | 100% | 1031.5 hPa | - | - | - | - |
| 1777888271 | 22.78° C | 100% | 1031 hPa | - | - | - | - |
| 1777887071 | 23.33° C | 100% | 1031.2 hPa | - | - | - | - |
| 1777885870 | 23.89° C | 100% | 1031.6 hPa | - | - | - | - |
| 1777884670 | 25° C | 100% | 1031.4 hPa | - | - | - | - |
| 1777883470 | 25.56° C | 100% | 1031.7 hPa | - | - | - | - |
| 1777882270 | 26.11° C | 100% | 1031.7 hPa | - | - | - | - |
| 1777881070 | 26.67° C | 100% | 1031.9 hPa | - | - | - | - |
| 1777879870 | 26.11° C | 100% | 1032.2 hPa | - | - | - | - |
| 1777878670 | 25.56° C | 100% | 1032.6 hPa | - | - | - | - |
| 1777877470 | 26.11° C | 100% | 1032.9 hPa | - | - | - | - |
| 1777876270 | 26.11° C | 100% | 1033.2 hPa | - | - | - | - |
| 1777875070 | 26.11° C | 100% | 1033.5 hPa | - | - | - | - |
| 1777873923 | 26.11° C | 100% | 1033.8 hPa | - | - | - | - |
| 1777873871 | 26.11° C | 100% | 1033.8 hPa | - | - | - | - |
| 1777872671 | 26.11° C | 100% | 1034 hPa | - | - | - | - |
| 1777871471 | 25.56° C | 100% | 1034.3 hPa | - | - | - | - |
| 1777870271 | 25.56° C | 100% | 1034.6 hPa | - | - | - | - |
| 1777869071 | 24.44° C | 100% | 1034.7 hPa | - | - | - | - |
| 1777867870 | 23.89° C | 100% | 1035 hPa | - | - | - | - |
| 1777866670 | 24.44° C | 100% | 1035 hPa | - | - | - | - |
| 1777865470 | 23.89° C | 100% | 1035 hPa | - | - | - | - |
* Rain since midnight (hover to see other rain measurements)
** Current wind speed in m/s (hover to see current wind gust speed)